Location: Cedarville Mobile Home Park
(38.5815°N, 75.0860°W)
Time: 02:54:09
(UTC+00:00)

ACS3 Solar Sail - Pass Details

Date: 19 October 2024
Orbit: 961 x 1022 km, 97.5° (Epoch: 03 November)

Event Time Altitude Azimuth Distance (km) Brightness Sun altitude
Exits shadow 01:13:12 59° 303° (WNW) 1,174 2.3 -34.9°
Drops below altitude 10° 01:18:39 10° 343° (NNW) 2,829 4.5 -35.9°
Sets 01:21:12 0° 346° (NNW) 3,781 5.2 -36.4°
